Total_Precipitation_Accumulation
0.89 0.87 1.01 1.22 1.61 1.74 1.86 1.91 2.13 2.68 2.96 2.99 3.35 3.62 3.30 3.33 3.65 3.87 4.03 4.03 3.82 3.77 3.72 3.37 2.72 2.47 2.47 2.59 2.77 2.98 3.19 3.65 3.73 2.46 1.89 1.74 1.85 2.05 2.13 2.12 2.14 2.09 2.33
1.19 1.26 1.76 2.17 2.34 2.27 2.29 2.56 2.56 2.45 2.54 2.64 2.91 3.09 3.18 3.54 3.73 3.81 3.91 3.82 3.63 3.68 3.96 3.80 3.41 3.47 3.45 3.46 3.67 3.52 3.51 3.65 3.91 3.20 2.46 2.16 2.15 2.42 2.41 2.07 1.88 1.69 1.65
1.83 1.98 2.18 2.36 2.44 2.64 2.68 2.48 2.33 2.61 2.91 2.83 2.98 3.26 3.13 3.24 3.64 3.98 4.10 4.02 3.95 3.94 3.75 3.54 3.24 3.35 3.39 3.58 3.83 4.00 3.79 3.74 4.00 4.12 3.28 2.96 2.99 2.97 3.05 2.89 2.63 2.44 2.27
1.92 1.77 1.91 2.34 2.44 2.48 2.34 2.07 1.82 1.93 2.07 2.32 2.34 2.41 2.52 2.67 2.80 3.15 3.40 3.62 3.43 3.37 3.46 3.38 3.57 3.53 3.26 3.01 3.12 3.20 3.17 3.29 3.50 3.89 3.87 3.61 3.41 3.31 3.35 3.32 3.42 3.37 3.42
2.04 1.89 2.14 2.17 2.24 2.25 2.14 1.75 1.49 1.52 1.51 1.49 1.52 1.75 1.91 2.11 2.45 2.47 2.68 2.99 3.09 3.10 2.97 2.91 3.04 3.67 3.76 3.60 3.48 3.42 3.41 3.63 3.50 3.60 3.75 3.50 3.22 3.35 3.45 3.34 3.17 3.28 3.09
1.98 2.38 2.03 2.39 2.40 1.96 1.99 1.79 1.61 1.54 1.49 1.62 1.46 1.59 1.94 1.99 2.55 2.51 2.46 2.66 2.82 2.85 3.00 2.96 3.12 3.53 3.33 3.58 3.39 3.05 2.89 3.08 3.03 2.95 2.96 2.99 2.70 2.36 2.35 2.48 2.81 3.04 3.31
1.58 2.59 2.57 2.85 3.86 2.89 2.01 1.99 1.94 2.18 2.05 1.87 2.03 1.98 1.95 1.91 2.57 2.56 2.60 2.37 2.77 2.83 2.78 2.71 2.82 2.95 3.17 2.81 3.28 3.13 2.89 3.03 2.78 2.54 2.47 2.27 2.33 2.34 2.54 2.68 2.62 2.77 2.83
0.44 1.07 2.19 2.52 3.37 4.25 3.28 2.73 2.83 2.64 2.62 2.27 2.14 2.11 1.96 2.60 2.77 3.02 3.36 2.82 2.50 2.66 2.83 2.63 2.53 2.56 2.80 2.83 2.75 2.95 2.84 2.82 3.05 3.04 2.96 3.08 3.12 3.04 3.05 3.15 3.30 3.71 3.75
0.30 0.54 0.90 1.47 2.28 2.97 3.69 3.85 3.58 3.48 3.09 2.86 2.41 2.20 2.25 2.30 2.30 1.93 2.08 2.28 2.72 3.06 2.97 2.93 3.10 3.00 3.76 3.67 3.20 3.54 3.78 4.01 4.58 4.43 4.21 4.27 4.07 3.68 3.42 3.64 4.43 4.26 4.32
0.47 0.48 0.57 0.78 1.11 1.67 2.31 2.69 2.68 2.52 2.65 2.56 2.56 2.26 2.36 2.18 2.56 2.10 1.80 1.29 1.66 1.98 2.40 2.70 3.53 2.97 3.43 3.16 2.79 2.76 3.46 4.15 3.99 4.22 4.25 4.07 3.83 3.71 3.88 3.34 3.22 3.53 3.61
0.89 0.86 0.92 0.99 1.04 1.16 1.44 1.64 1.72 1.82 1.84 1.83 1.86 1.82 1.68 1.60 1.85 1.91 1.75 1.42 1.63 1.92 1.96 2.03 2.37 3.19 2.69 2.83 3.00 2.91 3.94 3.97 4.05 3.39 3.18 3.29 3.42 3.51 3.59 3.64 3.58 3.70 3.80
1.38 1.32 1.26 1.12 1.25 1.48 1.64 1.74 1.68 1.68 1.62 1.47 1.39 1.42 1.47 1.55 1.80 1.59 1.41 1.37 1.65 1.48 1.92 1.99 2.31 2.64 2.20 2.30 2.58 3.24 3.59 3.48 3.16 3.21 3.20 3.23 3.13 3.09 3.08 3.08 3.08 2.88 2.78
1.67 1.66 1.70 1.72 1.80 1.92 2.00 1.99 1.91 1.83 1.61 1.50 1.37 1.42 1.58 1.58 1.73 1.88 1.65 1.62 1.63 1.47 1.99 2.73 3.01 2.72 2.44 2.53 2.74 2.85 2.89 2.83 3.00 3.10 3.12 3.13 2.91 2.60 2.26 2.17 1.96 1.68 1.65
1.49 1.60 1.74 1.92 2.09 2.10 2.06 2.14 2.03 2.01 1.95 1.80 1.68 1.75 1.79 1.80 1.70 1.68 1.78 1.98 2.19 2.27 2.65 2.70 2.58 2.47 2.37 2.49 2.54 2.48 2.38 2.30 2.17 2.08 1.94 1.82 1.66 1.56 1.41 1.21 1.24 1.23 1.19
1.38 1.70 1.81 1.71 1.72 1.85 1.95 1.93 1.77 1.97 1.84 1.71 1.66 1.64 1.73 1.94 2.22 2.01 1.88 1.87 1.93 2.15 2.17 2.15 2.02 1.84 1.71 1.71 1.64 1.59 1.60 1.61 1.66 1.67 1.55 1.42 1.30 1.10 1.01 0.89 0.91 0.91 0.99
1.77 1.85 2.19 2.29 2.00 1.86 1.91 2.18 2.32 2.27 2.25 2.02 1.80 1.59 1.78 1.91 1.92 1.72 1.56 1.47 1.44 1.38 1.31 1.32 1.43 1.55 1.64 1.68 1.64 1.58 1.50 1.47 1.32 1.21 1.14 1.07 1.04 0.98 0.99 0.94 0.88 0.91 0.97
0.89 1.16 1.61 2.01 2.11 1.90 1.85 1.87 2.04 2.49 2.40 2.26 2.24 2.22 2.11 2.27 2.10 1.89 1.70 1.62 1.60 1.44 1.47 1.43 1.49 1.49 1.47 1.39 1.34 1.29 1.30 1.19 1.04 1.02 0.96 0.92 0.92 0.92 0.96 0.89 0.88 0.90 0.95
0.78 1.04 1.05 1.11 1.28 1.56 1.65 1.69 1.57 1.64 1.69 1.84 1.80 1.45 1.37 1.33 1.32 1.24 1.10 1.03 1.12 0.96 0.87 0.90 0.93 0.85 0.79 0.78 0.80 0.88 0.97 1.02 1.01 0.96 0.99 0.97 0.99 0.98 0.96 0.93 0.90 0.90 0.84
0.78 0.89 1.03 1.15 1.26 1.37 1.25 1.33 1.44 1.42 1.43 1.51 1.43 1.39 1.26 1.11 0.98 0.92 0.77 0.76 0.73 0.69 0.60 0.62 0.60 0.59 0.59 0.60 0.68 0.75 0.83 0.91 0.91 0.94 0.91 0.93 0.96 0.97 0.95 0.94 0.99 1.01 0.90
1.26 1.58 1.41 1.26 1.31 1.27 1.16 1.10 1.12 1.15 1.16 1.11 1.04 1.04 1.08 1.03 1.12 1.07 0.89 0.72 0.68 0.62 0.54 0.58 0.55 0.56 0.63 0.68 0.72 0.79 0.87 0.90 0.91 0.87 0.92 0.94 0.94 0.93 1.01 1.05 1.02 0.96 0.85
1.13 1.25 1.38 1.22 1.06 0.95 0.91 0.88 0.85 0.84 0.83 0.82 0.85 0.76 0.67 0.69 0.72 0.66 0.63 0.60 0.65 0.79 0.89 0.84 0.78 0.78 0.75 0.75 0.79 0.86 0.89 0.89 0.90 0.91 0.95 0.98 0.98 1.02 1.01 1.02 0.98 0.78 0.67
0.90 0.89 0.88 1.04 1.20 1.05 0.92 0.80 0.82 0.85 0.84 0.83 0.91 1.07 1.02 0.83 0.72 0.76 0.81 0.84 0.83 0.81 0.85 1.02 1.04 0.92 0.94 1.03 1.01 1.06 0.93 0.93 0.94 0.96 0.96 0.95 0.94 0.90 0.91 0.85 0.75 0.71 0.71
0.84 0.73 0.68 0.72 0.90 1.18 1.17 0.97 1.00 1.03 1.07 1.12 1.16 1.27 1.26 1.18 1.14 0.99 0.92 0.97 1.02 1.06 0.91 0.85 0.94 1.01 0.95 1.06 1.11 1.14 1.17 1.07 0.99 0.97 0.98 0.89 0.83 0.82 0.76 0.67 0.57 0.63 0.62
0.81 0.71 0.63 0.65 0.76 1.02 1.14 1.15 1.08 1.05 1.06 1.14 1.22 1.21 1.13 1.02 1.10 1.19 1.22 1.17 1.17 1.17 1.12 1.11 1.00 0.98 1.03 1.06 1.15 1.17 1.17 1.16 1.24 1.11 0.97 0.89 0.77 0.75 0.68 0.58 0.50 0.40 0.43
0.82 0.79 0.78 0.74 0.77 0.79 1.04 1.11 1.12 1.09 1.06 1.05 1.08 1.03 0.99 0.99 1.03 1.09 1.20 1.12 1.10 1.12 1.06 0.99 0.97 0.95 0.97 0.97 1.00 0.96 1.13 1.13 1.06 1.12 0.98 0.87 0.77 0.61 0.47 0.43 0.39 0.36 0.31
0.74 0.73 0.73 0.65 0.75 0.79 0.90 1.06 1.11 0.99 0.98 1.01 0.92 0.95 0.99 1.02 0.97 1.01 0.88 0.85 0.88 0.90 0.91 0.88 0.86 0.92 0.92 0.92 0.98 1.00 0.95 0.92 0.93 0.94 0.80 0.72 0.66 0.59 0.45 0.37 0.30 0.33 0.27